Погода Усть-Щугор

Погода Усть-Щугор : погода сейчас, прогноз погоды и архив. Всё, что Вы хотите узнать о погоде Усть-Щугор!

Поиск расширенной информации на нашем сайте:

Другие новости

Новости СМИ2

Главная страница сайта

Новости сайта

03.07.2017

Напоминаем, что на нашем специализированном сайте Метеоцентр.Азия вы можете получить высокодетализированные автоматические прогнозы погоды по пунктам России, СНГ и мира в авиационном формате (включающие направление и скорость ветра, видимость, явления погоды, количество и форму облачности, нижнюю и верхнюю границу облачности).


Погода Усть-Щугор - сегодня

Время (UTC), дата Ветер
(°,м/с) 
Видим.   Явления Облачность Т
(°С)
Тd
(°С)
f(%) Тe
(°С)
Pmin
(гПа)
dP
(гПа)
Po
(мм)
O2
(г/м3)
Тmin Tmax R s Состояние
почвы
06 07.06.18 200 (Ю) 20000 м    8/8 600 м 
[Cu med, cong]
+9.8 +1.2 55 +9  1005.6  748  291           
12 07.06.18 230 (ЮЗ) 20000 м  {ливн. осадки}  10/6 600 м кучево-дожд., средняя 
[Cb cap|Ac As]
+10.7 -0.3 46 +10  1006.7  0.5  748  290           
06 08.06.18 290 (З) 20000 м    9/8 1020 м кучево-дожд., верхняя 
[Cb cap|Cc]
+8.5 +2.2 65 +8  1005.8  -0.1  748  292           
09 08.06.18 230 (ЮЗ) 20000 м    10/3 600 м кучево-дожд., средняя 
[Cb cap|Ac As]
+10 +0.7 52 +9  1005.6  -0.1  748  290           
12 08.06.18 230 (ЮЗ) 20000 м    9/3 1000 м кучево-дожд., средняя, верхняя 
[Cb cap|Ac As|Cs]
+12.3 -0.2 42 +12  1004.8  -0.7  747  288           
06 09.06.18 040 (СВ) 4000 м  слаб. ливневой дождь  10/6 600 м кучево-дожд., средняя 
[Cb cap|As op]
+6.8 +5.4 91 +7  1001.3  -1.4  744  292           
12 11.06.18 310 (СЗ) 20000 м  {ливн. осадки}  10/4 600 м кучево-дожд., средняя 
[Cb cap|Ac und]
+7.5 -1 55 +8  1005.9  0.6  748  293           
06 12.06.18 160 (Ю) 20000 м    10/10 1470 м 
[Sc]
+8.4 +2 64 +8  1007.4  -0.6  749  292           
09 12.06.18 210 (ЮЗ) 20000 м    8/4 1000 м средняя 
[Sc diur, vesp|Ac As]
+11.6 -1.7 40 +11  1006.4  -0.9  748  289           
12 12.06.18 190 (Ю) 6{10}  20000 м    8/3 1000 м средняя, верхняя 
[Sc diur, vesp|Ac As|Cc]
+12.7 -3.2 33 +12  1005.3  -1.1  747  288           
15 14.06.18 300 (СЗ) 4000 м  слаб. ливневой дождь  10/10 400 м кучево-дожд. 
[Cb cap]
+6.5 +5.3 92 +6  1000.7  1.7  744  292    +10.2  22     
06 16.06.18 360 (С) 20000 м    10/10 540 м 
[Sc]
+7.3 +3.9 79 +6  1014.6  0.8  754  295           
12 16.06.18 010 (С) 5{11}  20000 м    10/5 600 м средняя 
[Sc|Ac As]
+10.1 +4.4 68 +9  1015.4  0.4  755  293           
06 17.06.18 040 (СВ) 20000 м    10/10 660 м 
[Sc]
+9.3 +5.4 77 +9  1015.9  755  293           
09 17.06.18 360 (С) 20000 м    10/10 800 м 
[Sc]
+13.6 +6.9 64 +13  1015.6  -0.2  755  289           
12 17.06.18 030 (СВ) 20000 м    10/10 800 м 
[Sc]
+13.1 +6.9 66 +13  1015.5  0.1  755  289           
06 18.06.18 360 (С) 20000 м    6/0 средняя, верхняя 
[Ac lent|Cc]
+18.6 +6.3 45 +19  1010  -0.6  751  282           
06 19.06.18 010 (С) 6{10}  20000 м    6/3 600 м верхняя 
[Cu med, cong|Cc]
+15.4 +3.2 44 +15  1007.5  -1.1  749  285           
09 19.06.18 030 (СВ) 5{11}  20000 м    6/1 1000 м средняя, верхняя 
[Cu med, cong|Ac cast|Cc]
+17.5 +4.6 42 +18  1006.8  -0.6  749  283           
12 19.06.18 020 (С) 4{10}  20000 м    8/1 1000 м средняя, верхняя 
[Cu med, cong|Ac lent|Cc]
+18.6 +5.5 42 +19  1005.5  -1.2  748  281           
06 20.06.18 140 (ЮВ) 20000 м    1/1 1000 м 
[Cu hum]
+16.6 +7.8 56 +17  996.3  -2.3  741  280           
09 20.06.18 300 (СЗ) 20000 м    3/3 1000 м 
[Cu hum]
+21.1 +6 37 +21  993.8  -2.3  739  275           
12 20.06.18 250 (З) 20000 м    3/3 1000 м средняя 
[Cu hum|Ac lent]
+22.8 +4.6 31 +23  991.1  -2.7  737  273           
06 21.06.18 090 (В) 3{10}  20000 м    3/1 1000 м средняя 
[Cu hum|Ac lent]
+22.8 +6.3 34 +23  985.6  -0.2  733  272           
09 21.06.18 030 (СВ) 20000 м    8/6 1000 м верхняя 
[Cu hum|Cc]
+23.4 +6.5 34 +23  985.9  0.3  733  271           
Время (UTC), дата Ветер
(°,м/с) 
Видим.   Явления Облачность Т
(°С)
Тd
(°С)
f(%) Тe
(°С)
Pmin
(гПа)
dP
(гПа)
Po
(мм)
O2
(г/м3)
Тmin Tmax R s Состояние
почвы

Для получения пояснительной информации подведите курсор к названию столбца.

ПОГОДА Усть-Щугор - архив

Всё, что Вы хотите узнать о погоде Усть-Щугор - удобно и подробно!

Выберите нужную дату (начиная с 1 января 2015* года) и нажмите кнопку "Найти".
Будут отображены архивные сводки погоды по пункту Усть-Щугор, начиная с указанной даты.


Отображать данные в формате CSV (для использования в таблицах Excel)


Внимание! Наш архив погоды предназначен исключительно для личного некоммерческого использования в познавательных целях. Если Вам необходимы официальные справки о состоянии погоды (для производственных, юридических, коммерческих и т.п. целей), обращайтесь в органы Росгидромета.

*Примечание: данная дата относится к архиву по метеостанциям СССР (Россия, СНГ, Балтия).
Архив по метеостанциям Зарубежной Европы и Азии (кроме Китая) хранится 10 дней, по другим регионам земного шара (Китай, Африка, Америка, Австралия, Океания) - 1 день.

Усть-Щугор - район местоположения метеостанции


Название, широта, долгота, высота метеостанции:
Усть-Щугор 64.3°ш. 57.6°д. 75 м над ур. моря [Российская Федерация]

Дополнительная информация

В oтличие oт бoльшинства пoгoдных сайтoв мы публикуем пoдрoбную метеoинфoрмацию в детальнoм прoфессиoнальнoм фoрмате.

Характеристики температуры и влажнoсти вoздуха измеряются на высoте 2 м в тени вдали oт зданий и деревьев.
Скoрoсть ветра измеряется на высoте 10 м (на урoвне рoста челoвека скoрoсть ветра ниже в 1.5-2 раза). Если метеoстанция нахoдится в гoрoде или в лесу, тo скoрoсть ветра занижена на 2-4 м/с пo сравнению с oткрытым местoм. Скoрoсть ветра над акватoриями крупных рек и oзёр, а также на вершинах хoлмoв на 2-5 м/с выше, чем в oбычных услoвиях.
Атмoсфернoе давление в разных тoчках местнoсти мoжет значительнo oтличаться oт давления на метеoстанции, в зависимoсти oт услoвий рельефа (при пoдъёме на 10 м давление пoнижается примернo на 1 мм рт.ст.).